• In Latvia
  • List of Countries
  • For 7 days
  • Water Temperature
  • Satellite Maps
  • Weather Map
  • Weather Widgets
  • user-avatar
    Login

    Hourly Weather Gitega

    Today, 17 December, Sunday

    Time Temperature Precipitation Wind Pressure Humidity
    00:00 +16°C° 0 mm 1 mps 623 mmHg 86%
    01:00 +15°C° 0 mm 1 mps 622 mmHg 87%
    02:00 +15°C° 0 mm 1 mps 622 mmHg 87%
    03:00 +15°C° 0 mm 1 mps 622 mmHg 87%
    04:00 +15°C° 0 mm 1 mps 622 mmHg 87%
    05:00 +15°C° 0 mm 1 mps 622 mmHg 87%
    06:00 +18°C° 0 mm 1 mps 623 mmHg 80%
    07:00 +20°C° 0 mm 1 mps 623 mmHg 73%
    08:00 +22°C° 0 mm 1 mps 624 mmHg 66%
    09:00 +24°C° 0 mm 1 mps 625 mmHg 60%
    10:00 +26°C° 0 mm 1 mps 625 mmHg 54%
    11:00 +28°C° 0 mm 1 mps 625 mmHg 48%
    12:00 +27°C° 0.4 mm 1 mps 624 mmHg 52%
    13:00 +27°C° 0.4 mm 2 mps 624 mmHg 55%
    14:00 +26°C° 0.4 mm 2 mps 623 mmHg 59%
    15:00 +25°C° 0.8 mm 2 mps 622 mmHg 65%
    16:00 +24°C° 0.8 mm 1 mps 622 mmHg 71%
    17:00 +23°C° 0.8 mm 1 mps 622 mmHg 77%
    18:00 +22°C° 0.3 mm 1 mps 622 mmHg 80%
    19:00 +20°C° 0.3 mm 1 mps 622 mmHg 83%
    20:00 +19°C° 0.3 mm 1 mps 622 mmHg 86%
    21:00 +19°C° 0.1 mm 1 mps 622 mmHg 86%
    22:00 +19°C° 0.1 mm 1 mps 623 mmHg 86%
    23:00 +19°C° 0.1 mm 1 mps 623 mmHg 86%

    Tomorrow, 18 December, Monday

    Time Temperature Precipitation Wind Pressure Humidity
    00:00 +18°C° 0.3 mm 1 mps 623 mmHg 87%
    01:00 +18°C° 0.3 mm 1 mps 622 mmHg 88%
    02:00 +18°C° 0.3 mm 1 mps 622 mmHg 89%
    03:00 +18°C° 0.2 mm 1 mps 622 mmHg 89%
    04:00 +16°C° 0.2 mm 1 mps 622 mmHg 89%
    05:00 +16°C° 0.2 mm 1 mps 622 mmHg 90%
    06:00 +18°C° 0.1 mm 1 mps 622 mmHg 85%
    07:00 +20°C° 0.1 mm 1 mps 623 mmHg 80%
    08:00 +21°C° 0.1 mm 1 mps 624 mmHg 75%
    09:00 +23°C° 0.2 mm 1 mps 624 mmHg 69%
    10:00 +24°C° 0.2 mm 2 mps 624 mmHg 63%
    11:00 +26°C° 0.2 mm 2 mps 624 mmHg 57%
    12:00 +26°C° 0.7 mm 2 mps 624 mmHg 59%
    13:00 +25°C° 0.7 mm 2 mps 623 mmHg 61%
    14:00 +25°C° 0.7 mm 2 mps 622 mmHg 63%
    15:00 +24°C° 0.9 mm 2 mps 622 mmHg 69%
    16:00 +23°C° 0.9 mm 1 mps 621 mmHg 75%
    17:00 +22°C° 0.9 mm 1 mps 621 mmHg 81%
    18:00 +21°C° 0.5 mm 1 mps 621 mmHg 84%
    19:00 +20°C° 0.5 mm 1 mps 622 mmHg 86%
    20:00 +17°C° 0.5 mm 0 mps 622 mmHg 89%
    21:00 +16°C° 0.3 mm 0 mps 622 mmHg 89%
    22:00 +18°C° 0.3 mm 1 mps 622 mmHg 90%
    23:00 +18°C° 0.3 mm 1 mps 623 mmHg 90%

    Day after tomorrow, 19 December, Tuesday

    Time Temperature Precipitation Wind Pressure Humidity
    00:00 +18°C° 0.4 mm 1 mps 622 mmHg 91%
    01:00 +18°C° 0.4 mm 1 mps 622 mmHg 91%
    02:00 +18°C° 0.4 mm 1 mps 621 mmHg 92%
    03:00 +16°C° 0.2 mm 1 mps 621 mmHg 92%
    04:00 +16°C° 0.2 mm 1 mps 621 mmHg 92%
    05:00 +16°C° 0.2 mm 1 mps 621 mmHg 91%
    06:00 +18°C° 0.1 mm 1 mps 622 mmHg 88%
    07:00 +16°C° 0.1 mm 0 mps 622 mmHg 86%
    08:00 +17°C° 0.1 mm 0 mps 623 mmHg 83%
    09:00 +18°C° 0.1 mm 0 mps 623 mmHg 80%
    10:00 +21°C° 0.1 mm 1 mps 623 mmHg 77%
    11:00 +21°C° 0.1 mm 1 mps 623 mmHg 74%
    12:00 +23°C° 0.4 mm 2 mps 623 mmHg 70%
    13:00 +24°C° 0.4 mm 2 mps 623 mmHg 66%
    14:00 +25°C° 0.4 mm 2 mps 622 mmHg 62%
    15:00 +24°C° 1.3 mm 2 mps 622 mmHg 69%
    16:00 +23°C° 1.3 mm 2 mps 622 mmHg 75%
    17:00 +22°C° 1.3 mm 1 mps 621 mmHg 82%
    18:00 +21°C° 0.9 mm 1 mps 622 mmHg 85%
    19:00 +19°C° 0.9 mm 1 mps 622 mmHg 87%
    20:00 +16°C° 0.9 mm 0 mps 622 mmHg 90%
    21:00 +16°C° 0.3 mm 0 mps 622 mmHg 90%
    22:00 +18°C° 0.3 mm 1 mps 622 mmHg 91%
    23:00 +16°C° 0.3 mm 1 mps 622 mmHg 91%

    20 December, Wednesday

    Time Temperature Precipitation Wind Pressure Humidity
    00:00 +16°C° 0.1 mm 1 mps 622 mmHg 92%
    01:00 +16°C° 0.1 mm 1 mps 621 mmHg 92%
    02:00 +16°C° 0.1 mm 1 mps 621 mmHg 93%
    03:00 +16°C° 0 mm 1 mps 621 mmHg 92%
    04:00 +16°C° 0 mm 1 mps 621 mmHg 92%
    05:00 +15°C° 0 mm 1 mps 621 mmHg 92%
    06:00 +18°C° 0 mm 1 mps 622 mmHg 88%
    07:00 +17°C° 0 mm 0 mps 623 mmHg 83%
    08:00 +19°C° 0 mm 0 mps 624 mmHg 79%
    09:00 +21°C° 0.2 mm 1 mps 624 mmHg 76%
    10:00 +21°C° 0.2 mm 2 mps 625 mmHg 73%
    11:00 +23°C° 0.2 mm 2 mps 625 mmHg 70%
    12:00 +24°C° 0.5 mm 2 mps 624 mmHg 69%
    13:00 +24°C° 0.5 mm 2 mps 623 mmHg 68%
    14:00 +24°C° 0.5 mm 2 mps 623 mmHg 67%
    15:00 +24°C° 0.6 mm 2 mps 623 mmHg 72%
    16:00 +23°C° 0.6 mm 1 mps 622 mmHg 76%
    17:00 +22°C° 0.6 mm 1 mps 622 mmHg 81%
    18:00 +21°C° 0.6 mm 1 mps 622 mmHg 84%
    19:00 +19°C° 0.6 mm 1 mps 623 mmHg 88%
    20:00 +16°C° 0.6 mm 0 mps 623 mmHg 92%
    21:00 +16°C° 0.2 mm 0 mps 623 mmHg 91%
    22:00 +18°C° 0.2 mm 1 mps 623 mmHg 91%
    23:00 +18°C° 0.2 mm 1 mps 623 mmHg 91%

    21 December, Thursday

    Time Temperature Precipitation Wind Pressure Humidity
    00:00 +16°C° 0 mm 1 mps 623 mmHg 91%
    01:00 +16°C° 0 mm 1 mps 622 mmHg 91%
    02:00 +15°C° 0 mm 1 mps 622 mmHg 91%
    03:00 +15°C° 0 mm 1 mps 622 mmHg 91%
    04:00 +15°C° 0 mm 1 mps 622 mmHg 91%
    05:00 +15°C° 0 mm 1 mps 622 mmHg 91%
    06:00 +15°C° 0 mm 0 mps 623 mmHg 85%
    07:00 +17°C° 0 mm 0 mps 624 mmHg 79%
    08:00 +19°C° 0 mm 0 mps 625 mmHg 74%
    09:00 +23°C° 0 mm 1 mps 625 mmHg 67%
    10:00 +24°C° 0 mm 1 mps 625 mmHg 59%
    11:00 +26°C° 0 mm 2 mps 625 mmHg 52%
    12:00 +26°C° 0.2 mm 2 mps 625 mmHg 53%
    13:00 +26°C° 0.2 mm 2 mps 624 mmHg 54%
    14:00 +26°C° 0.2 mm 2 mps 623 mmHg 56%
    15:00 +26°C° 0.4 mm 2 mps 623 mmHg 61%
    16:00 +25°C° 0.4 mm 2 mps 623 mmHg 66%
    17:00 +24°C° 0.4 mm 2 mps 623 mmHg 70%
    18:00 +21°C° 0.4 mm 2 mps 623 mmHg 76%
    19:00 +20°C° 0.4 mm 1 mps 623 mmHg 82%
    20:00 +18°C° 0.4 mm 1 mps 623 mmHg 88%
    21:00 +18°C° 0.1 mm 1 mps 623 mmHg 88%
    22:00 +16°C° 0.1 mm 1 mps 623 mmHg 88%
    23:00 +16°C° 0.1 mm 1 mps 622 mmHg 88%

    22 December, Friday

    Time Temperature Precipitation Wind Pressure Humidity
    00:00 +16°C° 0 mm 1 mps 622 mmHg 88%
    01:00 +15°C° 0 mm 1 mps 622 mmHg 88%
    02:00 +15°C° 0 mm 1 mps 621 mmHg 88%
    03:00 +15°C° 0 mm 1 mps 622 mmHg 88%
    04:00 +15°C° 0 mm 1 mps 622 mmHg 87%
    05:00 +15°C° 0 mm 1 mps 622 mmHg 87%
    06:00 +18°C° 0 mm 1 mps 623 mmHg 80%
    07:00 +19°C° 0 mm 1 mps 624 mmHg 74%
    08:00 +21°C° 0 mm 1 mps 625 mmHg 67%
    09:00 +23°C° 0 mm 1 mps 625 mmHg 61%
    10:00 +25°C° 0 mm 2 mps 625 mmHg 54%
    11:00 +27°C° 0 mm 2 mps 625 mmHg 48%
    12:00 +27°C° 0 mm 2 mps 625 mmHg 47%
    13:00 +27°C° 0 mm 2 mps 624 mmHg 47%
    14:00 +28°C° 0 mm 2 mps 624 mmHg 47%
    15:00 +27°C° 0.1 mm 2 mps 623 mmHg 52%
    16:00 +26°C° 0.1 mm 2 mps 623 mmHg 57%
    17:00 +25°C° 0.1 mm 2 mps 622 mmHg 62%
    18:00 +23°C° 0.2 mm 1 mps 622 mmHg 69%
    19:00 +21°C° 0.2 mm 1 mps 622 mmHg 77%
    20:00 +18°C° 0.2 mm 1 mps 621 mmHg 84%
    21:00 +18°C° 0 mm 1 mps 621 mmHg 84%
    22:00 +18°C° 0 mm 1 mps 621 mmHg 84%
    23:00 +18°C° 0 mm 1 mps 622 mmHg 84%
    Show more